Miscellaneous Local Product
Issued by NWS North Platte, NE

Home | Current Version | Previous Version | Text Only | Print | Product List | Glossary On
Versions: 1 2 3 4 5 6 7 8 9 10 11 12 13 14 15 16 17 18 19 20 21 22 23 24 25 26 27 28 29 30 31 32 33 34 35 36 37 38 39 40 41 42 43 44 45 46 47 48 49 50
000
AXUS43 KLBF 270510
MISLBF


WESTERN AND NORTH CENTRAL NEBRASKA HOURLY WEATHER ROUNDUP
NATIONAL WEATHER SERVICE NORTH PLATTE NE
1200 AM CDT FRI MAR 27 2015

***STATIONS NOT REPORTING VARIABLES SUCH AS SKY/WEATHER OR
PRESSURE ARE PROVIDED BY THE NEBRASKA DEPARTMENT OF
ROADS...RAWS...AND APRS NETWORKS...AND ARE NOT UNDER
NATIONAL WEATHER SERVICE QUALITY CONTROL***

...OBSERVATIONS IN AND NEAR THE EASTERN PANHANDLE OF NEBRASKA...

CITY           SKY/WX    TMP DP  RH WIND       PRES   REMARKS
PINE RIDGE     LGT RAIN  37  33  85 CALM      30.18R
CHADRON        CLOUDY    41  29  62 SE7       30.16R
ALLIANCE       CLOUDY    37  28  70 S7        30.16R WCI  32
SIDNEY         CLOUDY    41  31  67 E6        30.17R
WHITECLAY        N/A     35  29  82 E6          N/A  WCI  29
CRESCENT LAKE    N/A     36  26  65 E6          N/A  WCI  31
BIG SPRINGS      N/A     43  30  60 E8          N/A
$$

...OBSERVATIONS IN NORTH CENTRAL NEBRASKA...

CITY           SKY/WX    TMP DP  RH WIND       PRES   REMARKS
VALENTINE      CLOUDY    33  26  75 CALM      30.22F
THEDFORD       MOCLDY    31  29  92 CALM      30.21S
AINSWORTH      MOCLDY    33  28  83 CALM      30.22S
O`NEILL        CLOUDY    32  31  96 NW5       30.24S WCI  28
ORD            CLOUDY    33  25  72 N8        30.23R WCI  26
BROKEN BOW     CLOUDY    33  27  78 NE8       30.22R WCI  26
BROWNLEE         N/A     32  30  93 NE6         N/A  WCI  26
SPRINGVIEW       N/A     31  27  84 CALM        N/A
BREWSTER         N/A     34  28  78 E6          N/A  WCI  29
ROSE             N/A     33  30  88 CALM        N/A
NEWPORT          N/A     33  31  92 CALM        N/A
SARGENT          N/A     33  27  80 NE3         N/A
COMSTOCK         N/A     37  30  77 E9          N/A  WCI  30
EWING            N/A     32  30  94 N5          N/A  WCI  27
$$

...OBSERVATIONS IN SOUTHWEST NEBRASKA AND FAR NORTHEAST COLORADO...

CITY           SKY/WX    TMP DP  RH WIND       PRES   REMARKS
WRAY           CLOUDY    44  30  58 E8        30.19R
HOLYOKE        FAIR      43  32  65 E9        30.19R
IMPERIAL         N/A     39  28  64 E5        30.19R
OGALLALA       CLOUDY    37  29  71 E8        30.18R WCI  31
NORTH PLATTE   CLOUDY    34  27  75 NE13      30.20R WCI  25
MCCOOK         CLOUDY    36  28  73 NE15      30.19R WCI  27
LEXINGTON      CLOUDY    33  28  81 NE9       30.22R WCI  26
PAXTON           N/A     38  29  69 E3          N/A
SUTHERLAND       N/A     29  26  90 E10         N/A  WCI  20
BRADY            N/A     33  26  76 CALM        N/A
GOTHENBURG       N/A     35  27  73 NE7         N/A  WCI  29
CALLAWAY         N/A     31  27  84 NE3         N/A
$$

...NORTH PLATTE AREA...

CITY           SKY/WX    TMP DP  RH WIND       PRES   REMARKS
AIRPORT        CLOUDY    34  27  75 NE13      30.20R WCI  25
DOWNTOWN         N/A     33  27  77 NE6         N/A  WCI  27
$$

...SOME WEATHER OBSERVATIONS FROM AROUND THE REGION...

CITY           SKY/WX    TMP DP  RH WIND       PRES   REMARKS
DENVER         CLOUDY    47  31  53 E16       30.17R
LARAMIE        CLOUDY    40  27  59 NW7       30.22S
CHEYENNE       CLOUDY    41  26  55 E3        30.18S
SCOTTSBLUFF    CLOUDY    42  34  73 E5        30.15S
RAPID CITY     CLOUDY    33  27  78 SE8       30.17S WCI  26
PIERRE         PTCLDY    28  24  85 E6        30.24R WCI  22
WINNER         FAIR      33  28  81 SW3       30.24S
SIOUX FALLS    CLEAR     24  15  68 N8        30.25R WCI  15
OMAHA          PTCLDY    32  30  92 N7        30.21S WCI  26
GRAND ISLAND   MOCLDY    29  26  89 N6        30.24R WCI  23
KANSAS CITY    LGT RAIN  38  35  89 N13       30.15R WCI  30
WICHITA        FAIR      43  33  68 W9        30.03S
HAYS           MOCLDY    37  27  65 NE15G24   30.17R WCI  28
LIBERAL        MOCLDY    45  28  53 NW6       30.16S
GOODLAND       CLOUDY    46  31  55 NE15      30.18S
$$



USA.gov is the U.S. government's official web portal to all federal, state and local government web resources and services.